Location: Barcelona
(41.3830°N, 2.1830°E)
Time: 13:13:47
(UTC+02:00)

ISS - Pass Details

Date: 01 June 2020
Orbit: 417 x 419 km, 51.6° (Epoch: 31 May)

Event Time Altitude Azimuth Distance (km) Brightness Sun altitude
Rises 23:11:13 0° 298° (WNW) 2,364 1.3 -16.6°
Reaches altitude 10° 23:13:27 10° 288° (WNW) 1,498 -0.1 -16.9°
Maximum altitude 23:16:29 31° 224° (SW) 758 -2.6 -17.2°
Enters shadow 23:16:59 29° 205° (SSW) 789 -2.7 -17.3°
